AULENDORF Weather Reports


time (UTC)temp
C
wind
direction
speed
KPH
gust
KPH
rain 1hr
cm
rain 24hr
cm
rain mn
cm
humidity
%
barometer
mb
20260506210210 8 202 9.7 0.0 0.00 0.00 0.23 90 1008.9
20260506203210 8 195 9.7 0.0 0.00 0.00 0.23 89 1008.9
20260506200210 8 227 3.2 0.0 0.00 0.00 0.23 89 1008.8
20260506193215 9 198 4.8 0.0 0.00 0.00 0.23 90 1008.6
20260506190211 9 250 4.8 0.0 0.00 0.00 0.23 89 1008.2
20260506183209 10 157 8.0 0.0 0.00 0.00 0.23 88 1007.7
20260506180216 10 221 4.8 0.0 0.00 0.00 0.23 87 1007.6
20260506173210 10 167 6.4 0.0 0.00 0.00 0.23 87 1007.4
20260506170215 10 213 11.3 0.0 0.00 0.00 0.23 88 1006.7
20260506163210 10 218 11.3 0.0 0.00 0.00 0.23 87 1006.6
20260506160210 10 166 17.7 0.0 0.00 0.00 0.23 89 1006.7
20260506153210 9 221 9.7 0.0 0.00 0.00 0.23 89 1006.1
20260506150210 10 209 12.9 0.0 0.00 0.00 0.10 86 1006.3
20260506143210 13 228 27.4 0.0 0.00 0.00 0.03 75 1005.0
20260506140210 16 255 11.3 0.0 0.00 0.00 0.03 65 1003.9
20260506133211 17 227 8.0 0.0 0.00 0.00 0.03 63 1004.0
20260506130211 15 163 4.8 0.0 0.00 0.00 0.03 68 1004.2
20260506123210 16 269 6.4 0.0 0.00 0.00 0.03 68 1004.0
20260506120210 16 323 1.6 0.0 0.00 0.00 0.03 65 1003.7
20260506113217 16 339 6.4 0.0 0.00 0.00 0.03 67 1003.9
20260506110210 16 360 3.2 0.0 0.00 0.00 0.03 64 1004.2
20260506100213 14 53 4.8 0.0 0.00 0.00 0.03 76 1004.5
20260506093211 13 260 1.6 0.0 0.00 0.00 0.00 76 1004.7
20260506090211 14 177 3.2 0.0 0.00 0.00 0.00 73 1004.9
20260506083211 15 360 3.2 0.0 0.00 0.00 0.00 75 1004.7
20260506080212 13 95 3.2 0.0 0.00 0.00 0.00 80 1004.8
20260506073211 12 325 3.2 0.0 0.00 0.00 0.00 83 1004.9
20260506070212 11 78 1.6 0.0 0.00 0.00 0.00 87 1005.2
20260506060210 10 236 3.2 0.0 0.00 0.00 0.00 92 1005.1
20260506050211 8 236 0.0 0.0 0.00 0.00 0.00 92 1005.2
20260506043211 8 236 0.0 0.0 0.00 0.00 0.00 91 1005.5
20260506040211 9 236 0.0 0.0 0.00 0.00 0.00 91 1005.7
20260506033211 9 236 3.2 0.0 0.00 0.00 0.00 90 1006.0
20260506030212 10 236 0.0 0.0 0.00 0.00 0.00 90 1006.3
20260506023211 10 236 4.8 0.0 0.00 0.00 0.00 91 1006.5
20260506020212 9 236 3.2 0.0 0.00 0.00 0.00 91 1006.6
20260506013211 10 236 1.6 0.0 0.00 0.00 0.00 91 1006.8
20260506010212 10 224 4.8 0.0 0.00 0.00 0.00 91 1007.1
20260506003209 10 229 0.0 0.0 0.00 0.00 0.00 91 1007.1
20260506000211 10 229 1.6 0.0 0.00 0.00 0.00 91 1007.3
20260505233209 10 229 1.6 0.0 0.00 0.00 0.00 90 1007.6
20260505230209 10 251 4.8 0.0 0.00 0.00 0.00 90 1007.6
20260505223210 10 232 6.4 0.0 0.00 0.00 0.00 90 1007.9
20260505220209 10 190 3.2 0.0 0.00 0.00 0.05 90 1007.8
20260505213211 10 232 4.8 0.0 0.00 0.00 0.05 89 1007.8